Lexington Weather

Lexington, Massachusetts, USA

70°F
8/17/2022 7:10pm 
  • Lexington Conditions: Overcast
  • Temperature: 69.6°F / 20.9°CColder 0.7°F than last hour.
  • Dew Point: 56.8°FDecreased 2.6°Fsince last hour.
  • Relative Humidity: 64%Decreased 4.0% since last hour.
  • Wind: Calm, 10-min avg: Calm, gust: None
  • Barometer: 29.84 inFalling 0.02  inHg/hr Falling Slowly
  • Visibility: 10 miles
  • Rain Today: 0.00 in
  •   

Regional Weather Roundup
for Boston, MA

        
000
ASUS41 KBOX 161410
RWRBOX

REGIONAL WEATHER ROUNDUP
NATIONAL WEATHER SERVICE BOSTON/NORTON MA
1000 AM EDT TUE AUG 16 2022

NOTE:  "FAIR" INDICATES FEW OR NO CLOUDS BELOW 12,000 FEET WITH NO 
SIGNIFICANT WEATHER AND/OR OBSTRUCTIONS TO VISIBILITY.

MAZALL-161500-
EASTERN MASSACHUSETTS
  
CITY           SKY/WX    TMP DP  RH WIND       PRES   REMARKS
BOSTON         MOSUNNY   74  62  66 NE14      30.05S                  
BEVERLY        MOSUNNY   74  62  66 NE9       30.05R                  
LAWRENCE       NOT AVBL                                               
BEDFORD        SUNNY     77  53  43 NE13      30.05S                  
BLUE HILL      NOT AVBL                                               
NORWOOD        SUNNY     77  61  57 E13G18    30.04F                  
MARSHFIELD     MOSUNNY   72  64  78 VRB7G15   30.04R                  
PLYMOUTH       MOSUNNY   72  63  73 NE10G22   30.04R                  
TAUNTON          N/A    N/A N/A N/A MISG      30.03F                  
NEW BEDFORD    MOSUNNY   75  62  64 N13G20    30.01S                  
$$

MAZALL-161500-
CAPE COD AND THE ISLANDS
  
CITY           SKY/WX    TMP DP  RH WIND       PRES   REMARKS
FALMOUTH       SUNNY     72  63  73 NE18G24   30.02R                  
HYANNIS        MOSUNNY   77  58  51 NE15G22   30.00R                  
CHATHAM        MOSUNNY   74  60  61 NE14G21   30.02S                  
NANTUCKET      PTSUNNY   75  64  68 NE20      29.99F                  
MARTHAS VNYRD  MOSUNNY   76  63  64 NE16G22   30.00S                  
$$
 
MAZALL-161500-
CENTRAL AND WESTERN MASSACHUSETTS
  
CITY           SKY/WX    TMP DP  RH WIND       PRES   REMARKS
WORCESTER      SUNNY     71  50  47 E12G22    30.09R                  
FITCHBURG      SUNNY     74  48  39 NE5       30.08S                  
ORANGE         SUNNY     74  53  48 VRB5      30.09S                  
SPRINGFIELD    PTSUNNY   74  50  43 NE7       30.04S                  
WESTFIELD      SUNNY     73  52  47 NE6       30.06S                  
NORTH ADAMS    MOSUNNY   69  58  67 CALM      30.08S                  
PITTSFIELD     MOSUNNY   73  54  51 VRB5      30.08R                  
$$
 
RIZALL-161500-
RHODE ISLAND
  
CITY           SKY/WX    TMP DP  RH WIND       PRES   REMARKS
PROVIDENCE     PTSUNNY   76  61  59 NE16      30.03F                  
NEWPORT        MOSUNNY   73  62  68 NE15G22   30.02R                  
BLOCK ISLAND   MOSUNNY   72  63  73 NE14      30.01S                  
SMITHFIELD     SUNNY     75  60  59 NE9       30.05F                  
WESTERLY       MOSUNNY   75  61  61 NE10G20   30.01F                  
$$
 
CTZALL-161500-
CONNECTICUT
  
CITY           SKY/WX    TMP DP  RH WIND       PRES   REMARKS
BRADLEY INTL   PTSUNNY   74  53  48 NE10      30.06S                  
HARTFORD       PTSUNNY   74  55  51 N8        30.05S                  
BRIDGEPORT     MOSUNNY   74  54  49 NE13      30.03S                  
DANBURY        SUNNY     76  54  46 NE9       30.06S                  
GROTON         MOSUNNY   78  60  53 NE14      30.00F                  
NEW HAVEN      MOSUNNY   77  56  48 NE6G16    30.03S                  
CHESTER        FAIR      75  54  46 NE8G15    30.04S                  
MERIDEN        MOSUNNY   74  53  48 N12       30.04S                  
WILLIMANTIC    SUNNY     74  55  51 NE13      30.05S                  
OXFORD         MOSUNNY   72  53  51 NE10G16   30.07R                  
$$

MEZ002-015-021-024-NHZ003-005-008-011-012-014-VTZ005-008-161500-
NORTHERN NEW ENGLAND
  
CITY           SKY/WX    TMP DP  RH WIND       PRES   REMARKS
PORTLAND ME    MOSUNNY   73  58  59 NE9       30.09S                  
BANGOR ME      MOSUNNY   76  60  57 VRB6      30.11S                  
CONCORD NH     SUNNY     76  57  51 NE6       30.08S                  
MANCHESTER NH  MOSUNNY   76  53  44 VRB5      30.07R                  
NASHUA NH      SUNNY     73  55  53 VRB6      30.08S                  
PORTSMOUTH NH  MOSUNNY   76  55  47 NE13      30.07R                  
JAFFREY NH     SUNNY     75  53  46 VRB5      30.10S                  
KEENE NH       SUNNY     69  56  62 CALM        N/A                   
BURLINGTON VT  MOSUNNY   74  57  55 CALM      30.09S                  
MT. WASHINGTON PTSUNNY   52  48  87 E22G30      N/A                   
$$

NYZ052-076-161500-
EASTERN NEW YORK
  
CITY           SKY/WX    TMP DP  RH WIND       PRES   REMARKS
ALBANY         PTSUNNY   75  57  53 N5        30.07S                  
NEW YORK CITY  PTSUNNY   73  56  54 NE13      30.03S                  
$$
 
ANZALL-161500-
MARINE OBSERVATIONS
  
STATION/POSITION TIME  TEMP    WIND        PRES    VSBY  WAVE
                       AIR SEA DIR/SP/G                  HT/PER
                 (UTC) (F)     (DEG/KT/KT) (MB)    (MI)  (FT/S)
BOSTON BUOY      NOT AVBL
BUZZARDS BAY     NOT AVBL
NANTUCKET SOUND  NOT AVBL
MASS BAY-STELLWA NOT AVBL
ISLE OF SHOALS   NOT AVBL
S OF BLOCK IS    NOT AVBL
$$

......................KEY.........................
  SKY/WX - SKY CONDITION/PRESENT WEATHER
  TMP    - TEMPERATURE IN FAHRENHEIT
  DWPT   - DEWPOINT IN FAHRENHEIT
  RH     - RELATIVE HUMIDITY IN PERCENT
  WIND   - DIRECTION AND SPEED IN MPH
  PRES   - MEAN SEA LEVEL PRESSURE IN INCHES OF HG
  WCI    - WIND CHILL INDEX
  VSB    - VISIBILITY IN MILES
  HX     - HEAT INDEX
  TC     - TEMPERATURE IN CELSIUS
  VRB    - VARIABLE WIND DIRECTION
  N/A    - NOT AVAILABLE
  
      

Other recent Regional Weather Roundups

Wed Aug 17, 6:10pm

Wed Aug 17, 5:10pm

Wed Aug 17, 4:10pm

Wed Aug 17, 3:10pm

Wed Aug 17, 2:10pm

Wed Aug 17, 1:10pm

Wed Aug 17, 12:10pm

Wed Aug 17, 11:10am

Wed Aug 17, 10:10am

Wed Aug 17, 9:10am

Wed Aug 17, 8:10am

Wed Aug 17, 7:10am

Wed Aug 17, 6:10am

Wed Aug 17, 5:10am

Wed Aug 17, 4:10am

Wed Aug 17, 3:10am

Wed Aug 17, 2:10am

Wed Aug 17, 1:10am

Wed Aug 17, 12:10am

Tue Aug 16, 11:10pm

Tue Aug 16, 10:10pm

Tue Aug 16, 9:10pm

Tue Aug 16, 8:10pm

Tue Aug 16, 7:10pm

Tue Aug 16, 6:10pm

Tue Aug 16, 5:10pm

Tue Aug 16, 4:10pm

Tue Aug 16, 3:10pm

Tue Aug 16, 2:10pm

Tue Aug 16, 1:10pm

Tue Aug 16, 12:10pm

Tue Aug 16, 11:10am

Tue Aug 16, 9:10am

Tue Aug 16, 8:10am

Tue Aug 16, 7:10am

Tue Aug 16, 6:10am

Tue Aug 16, 5:10am

Tue Aug 16, 4:10am

Tue Aug 16, 3:10am

Tue Aug 16, 2:10am

Tue Aug 16, 1:10am

Tue Aug 16, 12:10am

Mon Aug 15, 11:10pm

Mon Aug 15, 10:10pm

Mon Aug 15, 9:10pm

Mon Aug 15, 8:10pm

Mon Aug 15, 7:10pm

Mon Aug 15, 6:10pm

Mon Aug 15, 5:10pm

Mon Aug 15, 4:10pm

Mon Aug 15, 3:10pm

Mon Aug 15, 2:10pm

Mon Aug 15, 1:10pm

Mon Aug 15, 12:10pm

Mon Aug 15, 11:10am

Mon Aug 15, 10:10am

Mon Aug 15, 9:10am

Mon Aug 15, 8:10am

Mon Aug 15, 7:10am

Mon Aug 15, 6:10am

Mon Aug 15, 5:10am

Mon Aug 15, 4:10am

Mon Aug 15, 3:10am

Mon Aug 15, 2:10am

Mon Aug 15, 1:10am

Mon Aug 15, 12:10am

Sun Aug 14, 11:10pm

Sun Aug 14, 10:10pm

Sun Aug 14, 9:10pm

Sun Aug 14, 8:10pm

Sun Aug 14, 7:10pm

Sun Aug 14, 6:10pm

Sun Aug 14, 5:10pm

Sun Aug 14, 4:10pm

Sun Aug 14, 3:10pm

Sun Aug 14, 2:10pm

Sun Aug 14, 1:10pm

Sun Aug 14, 12:10pm

Sun Aug 14, 11:10am

Sun Aug 14, 10:10am

Sun Aug 14, 9:10am

Sun Aug 14, 8:10am

Sun Aug 14, 7:10am

Sun Aug 14, 6:10am

Sun Aug 14, 5:10am

Sun Aug 14, 4:10am

Sun Aug 14, 3:10am

Sun Aug 14, 2:10am

Sun Aug 14, 1:10am

Sun Aug 14, 12:10am

Sat Aug 13, 11:10pm

Sat Aug 13, 10:10pm

Sat Aug 13, 9:10pm

Sat Aug 13, 8:10pm

Sat Aug 13, 7:10pm

Sat Aug 13, 6:10pm

Sat Aug 13, 5:10pm

Sat Aug 13, 4:10pm

Sat Aug 13, 3:10pm

Sat Aug 13, 2:10pm

Sat Aug 13, 1:10pm

Sat Aug 13, 12:10pm

Sat Aug 13, 11:10am

Sat Aug 13, 10:10am

Sat Aug 13, 9:10am

Sat Aug 13, 8:10am

Sat Aug 13, 7:10am

Sat Aug 13, 6:10am

Sat Aug 13, 5:10am

Sat Aug 13, 4:10am

Sat Aug 13, 3:10am

Sat Aug 13, 2:10am

Sat Aug 13, 1:10am

Sat Aug 13, 12:10am

Fri Aug 12, 11:10pm

Fri Aug 12, 10:10pm

Fri Aug 12, 9:10pm

Fri Aug 12, 8:10pm

Fri Aug 12, 7:10pm

Fri Aug 12, 6:10pm

Fri Aug 12, 5:10pm

Fri Aug 12, 4:10pm

Fri Aug 12, 3:10pm

Fri Aug 12, 2:10pm

Fri Aug 12, 1:10pm

Fri Aug 12, 12:10pm

Fri Aug 12, 11:10am

Fri Aug 12, 10:10am

Fri Aug 12, 9:10am

Fri Aug 12, 8:10am

Fri Aug 12, 7:10am

Fri Aug 12, 6:10am

Fri Aug 12, 5:10am

Fri Aug 12, 4:10am

Fri Aug 12, 3:10am

Fri Aug 12, 2:10am

Fri Aug 12, 1:10am

Fri Aug 12, 12:10am

Thu Aug 11, 11:10pm

Thu Aug 11, 10:10pm

Thu Aug 11, 9:10pm

Thu Aug 11, 8:10pm

Thu Aug 11, 7:10pm

Thu Aug 11, 6:10pm

Thu Aug 11, 5:10pm

Thu Aug 11, 4:10pm

Thu Aug 11, 3:10pm

Thu Aug 11, 2:10pm

Thu Aug 11, 1:10pm

Thu Aug 11, 12:10pm

Thu Aug 11, 11:10am

Thu Aug 11, 10:10am

Thu Aug 11, 9:10am

Thu Aug 11, 8:10am

Thu Aug 11, 7:10am

Thu Aug 11, 6:10am

Thu Aug 11, 5:10am

Thu Aug 11, 4:10am

Thu Aug 11, 3:10am

Thu Aug 11, 2:10am

Thu Aug 11, 1:10am

Thu Aug 11, 12:10am

Wed Aug 10, 11:10pm

Wed Aug 10, 10:10pm

Wed Aug 10, 9:10pm

Wed Aug 10, 8:10pm

Wed Aug 10, 7:10pm

Meta data:

ID: a9a84a4d-ea75-4a49-9590-97cb73baee96
Link: https://api.weather.gov/products/a9a84a4d-ea75-4a49-9590-97cb73baee96